Location: Pedimozza
(42.0500°N, 9.3500°E)
Time: 18:34:26
(UTC+00:00)

SL-16 R/B - Pass Details

Date: 19 August 2019
Orbit: 842 x 846 km, 71.0° (Epoch: 21 September)

Event Time Altitude Azimuth Distance (km) Brightness Sun altitude
Rises 22:49:37 0° 336° (NNW) 3,414 6.3 -34.7°
Reaches altitude 10° 22:52:05 10° 338° (NNW) 2,476 5.4 -34.8°
Enters shadow 22:55:45 42° 346° (NNW) 1,201 3.3 -34.9°
